Location: Blue Mountain Vista Observatory
(40.6992°N, 75.9422°W)
Time: 15:31:40
(UTC-04:00)

Daily predictions for brighter satellites

Satellite Brightness Start Highest point End
(mag) Time Altitude Azimuth Time Altitude Azimuth Time Altitude Azimuth
Cosmos 1745 Rocket 4.5 19:15:02 10° SSW 19:21:15 71° W 19:27:35 10° N
USA 234 4.4 19:17:19 10° SSE 19:23:32 45° SW 19:29:46 10° WNW
SKYMED 2 4.0 19:20:49 10° N 19:25:10 72° WNW 19:29:28 10° SSW
H-2A R/B 3.7 19:23:08 10° SE 19:26:17 27° ENE 19:29:28 10° NNE
Cosmos 2228 4.0 19:24:48 10° SE 19:28:24 25° E 19:31:59 10° NNE
Cosmos 2058 Rocket 3.9 19:25:43 10° SSE 19:29:25 28° E 19:33:10 10° NNE
Cosmos 1606 Rocket 3.7 19:26:10 10° SSE 19:30:22 50° E 19:34:35 10° NNE
Cosmos 1953 Rocket 4.0 19:27:15 10° N 19:31:22 40° ENE 19:35:26 10° SSE
Cosmos 332 Rocket 3.8 19:28:57 10° SSW 19:33:50 88° ESE 19:38:44 10° NNE
Geosat 4.0 19:29:02 10° SSE 19:34:03 78° ENE 19:39:06 10° NNW
COSMOS 2406 4.5 19:31:49 10° SE 19:35:35 18° E 19:39:22 10° ENE
ATLAS CENTAUR R/B 4.2 19:19:29 10° NW 19:36:32 57° NNE 19:42:06 10° ESE
Cosmos 389 Rocket 2.4 19:35:37 10° S 19:39:06 64° E 19:42:35 10° NNE
Cosmos 371 Rocket 3.3 19:34:51 10° SSW 19:39:43 84° ESE 19:44:38 10° NNE
Meteor 1-15 Rocket 4.4 19:34:13 10° S 19:40:07 86° W 19:46:00 10° N
Cosmos 1707 3.0 19:41:17 10° N 19:45:06 47° E 19:48:53 10° SSE
Cosmos 858 Rocket 4.5 19:40:20 10° NNW 19:45:36 68° ENE 19:50:49 10° SSE
FENGYUN 3A 3.7 19:40:22 10° SSE 19:45:43 90° E 19:51:08 10° NNW
Cosmos 2369 Rocket 2.8 19:41:25 10° NNW 19:46:58 60° WSW 19:52:28 10° S
Cosmos 1656 Rocket 4.3 19:43:42 10° N 19:48:57 37° ENE 19:54:04 10° SE
Cosmos 1825 Rocket 3.7 19:46:43 10° N 19:51:09 83° W 19:55:35 10° S
Cosmos 2298 Rocket 4.0 19:46:22 10° NNW 19:51:42 67° ENE 19:57:00 10° SSE
Cosmos 468 Rocket 4.1 19:48:08 10° SSW 19:53:20 81° WNW 19:58:38 10° NNE
Cosmos 841 Rocket 3.8 19:49:45 10° S 19:54:35 43° ESE 19:59:26 10° NNE
USA 229 DEB 3.9 19:48:03 10° NW 19:55:16 87° NE 20:02:37 10° SSE
USA 229 3.9 19:48:08 10° NW 19:55:22 87° NE 20:02:42 10° SE
Cosmos 1937 Rocket 3.5 19:50:13 10° NNW 19:55:33 71° ENE 20:00:47 10° SSE
Cosmos 2181 Rocket 3.9 19:51:59 10° N 19:58:14 83° E 20:04:22 10° S
Cosmos 1340 Rocket 2.9 19:54:29 10° N 19:58:34 86° WSW 20:02:38 10° S
Cosmos 1271 Rocket 3.8 19:59:38 10° SSW 20:03:16 47° WNW 20:06:58 10° N
NOSS 3-1 (C) 4.2 20:02:36 10° NNW 20:10:08 62° NE 20:17:12 15° SE
HJ-1C 3.3 20:08:07 10° SSE 20:11:27 84° ENE 20:14:50 10° N
Cosmos 1356 Rocket 3.6 20:08:28 10° N 20:12:41 51° ENE 20:16:30 12° SSE
SL-08 ROCKET BODY 4.3 20:08:27 10° S 20:14:19 87° E 20:20:17 10° N
Cosmos 1378 3.3 20:12:14 10° N 20:16:01 76° W 20:19:46 10° S
Cosmos 1763 Rocket 3.4 20:11:30 10° SSW 20:16:35 87° WNW 20:21:46 10° NNE
Cosmos 2074 Rocket 3.9 20:10:59 10° S 20:17:06 65° E 20:23:14 10° NNE
Thor Agena Rocket 4.5 20:13:39 10° N 20:18:46 52° WNW 20:23:48 10° SW
CZ-2D R/B 3.2 20:16:53 15° SSE 20:19:53 60° ENE 20:23:38 10° N
Cosmos 540 Rocket 3.8 20:18:25 10° S 20:23:07 38° ESE 20:27:50 10° NE
Cosmos 1544 3.3 20:23:42 22° SSE 20:25:40 44° E 20:29:07 10° NNE
Resurs 1-3 3.7 20:24:24 22° SE 20:27:04 55° ENE 20:31:23 10° N
SJ-6B 3.5 20:23:56 10° S 20:27:54 56° W 20:31:49 10° NNW
Meteor 1-24 Rocket 3.8 20:23:24 10° N 20:29:25 72° E 20:35:13 10° SSE
Cosmos 304 Rocket 3.7 20:25:49 10° SSW 20:30:36 87° ESE 20:35:26 10° NNE
Spot 2 Rocket 3.4 20:35:49 22° SSE 20:39:05 69° ENE 20:44:06 10° N
Cosmos 836 Rocket 4.4 20:36:29 10° S 20:41:41 62° ESE 20:46:53 10° NNE
GEOS 3 Rocket 3.8 20:37:08 10° NE 20:42:24 52° ESE 20:47:38 10° SSW
Resurs 01 Rocket 1.5 20:40:30 22° SSE 20:43:22 90° NE 20:47:49 10° NNW
Nadezhda 3 Rocket 4.1 20:38:32 10° N 20:44:42 52° ENE 20:47:19 32° SE
Milstar 3 Cent rocket 3.8 20:43:27 10° SSW 20:45:32 14° S 20:45:32 14° S
USA 186 3.5 20:51:12 20° NNW 20:51:12 20° NNW 20:52:05 10° NNW
Cosmos 2184 Rocket 4.2 20:45:08 10° SSW 20:51:24 72° W 20:57:46 10° N
Cosmos 1943 Rocket 4.1 20:47:07 10° NW 20:51:48 28° WSW 20:56:31 10° SSW
FALCON 9 R/B 2.5 20:48:59 10° WSW 20:52:23 45° S 20:53:49 38° SE
GP-B 2.9 20:48:11 10° N 20:52:38 76° E 20:54:02 43° SSE
SJ-11-01 4.3 20:53:42 53° E 20:54:02 54° ENE 20:58:38 10° N
MOS 1-B Rocket 3.9 20:52:11 16° SSE 20:57:22 89° WSW 21:03:09 10° NNW
Cosmos 1610 Rocket 4.5 20:53:37 10° S 20:59:59 87° W 21:06:25 10° N
Cosmos 1125 Rocket 3.4 20:56:49 10° NNW 21:02:08 75° ENE 21:03:08 57° SE
Cosmos 1812 Rocket 3.6 21:04:33 34° SSW 21:06:27 81° W 21:10:57 10° N
H-2A R/B 4.1 21:11:13 13° NNE 21:11:13 13° NNE 21:12:12 10° NNE
ERS-1 Rocket 4.3 21:11:31 27° NE 21:11:31 27° NE 21:14:26 10° N
Envisat 3.3 21:08:43 30° S 21:11:12 65° W 21:16:16 10° NNW
Cosmos 1295 Rocket 4.4 21:15:33 59° E 21:15:33 59° E 21:21:29 10° NNE
Cosmos 1939 Rocket 3.6 21:18:19 49° NNW 21:18:19 49° NNW 21:21:19 10° NNW
COSMOS 2406 3.7 21:13:41 10° SW 21:19:19 61° WNW 21:25:00 10° NNE
Meteor 1-21 Rocket 4.1 21:13:40 10° N 21:19:25 68° ENE 21:19:25 68° ENE
Cosmos 372 Rocket 3.9 21:15:32 10° NNW 21:20:49 85° WSW 21:21:07 79° S
ARGOS 4.3 21:38:33 32° NNE 21:38:33 32° NNE 21:41:44 10° N
ATLAS 2AS CENTAUR R/B 3.5 21:34:19 10° NNW 21:41:53 41° NE 21:42:18 41° NE
Cosmos 1980 Rocket 4.3 22:39:17 10° NNW 22:41:06 21° N 22:41:06 21° N
ATLAS 2AS CENTAUR R/B 4.3 23:25:30 10° NW 23:29:44 32° WNW 23:29:44 32° WNW
